QPF
0.00 0.00 0.00 0.00 0.00 0.00 0.01 0.02 0.05 0.05 0.03 0.05 0.01 0.00 0.00 0.00 0.00 0.00 0.00 0.00 0.00 0.01 0.00 0.00 0.00 0.00 0.00 0.01 0.01 0.01 0.01 0.00 0.00 0.00 0.00 0.01 0.02 0.02 0.03 0.03 0.04 0.07 0.09 0.10
0.00 0.01 0.01 0.00 0.00 0.00 0.00 0.00 0.01 0.04 0.04 0.01 0.01 0.00 0.00 0.00 0.00 0.00 0.00 0.00 0.00 0.00 0.00 0.00 0.00 0.00 0.00 0.00 0.00 0.00 0.00 0.00 0.00 0.00 0.00 0.00 0.01 0.02 0.03 0.04 0.05 0.05 0.06 0.07
0.01 0.02 0.00 0.00 0.00 0.00 0.00 0.00 0.02 0.08 0.05 0.01 0.01 0.06 0.04 0.01 0.00 0.00 0.00 0.00 0.00 0.00 0.00 0.00 0.00 0.00 0.00 0.00 0.00 0.00 0.00 0.00 0.00 0.00 0.00 0.00 0.00 0.01 0.01 0.02 0.02 0.03 0.04 0.06
0.00 0.00 0.00 0.00 0.00 0.00 0.01 0.01 0.01 0.00 0.01 0.04 0.06 0.21 0.20 0.12 0.06 0.01 0.00 0.00 0.00 0.00 0.00 0.00 0.00 0.00 0.00 0.00 0.00 0.00 0.00 0.00 0.00 0.00 0.00 0.00 0.00 0.00 0.00 0.00 0.00 0.01 0.01 0.02
0.01 0.00 0.00 0.00 0.00 0.00 0.01 0.00 0.00 0.00 0.01 0.06 0.23 0.51 0.52 0.32 0.19 0.06 0.01 0.00 0.00 0.00 0.00 0.00 0.00 0.00 0.00 0.00 0.00 0.00 0.00 0.00 0.00 0.00 0.00 0.00 0.00 0.00 0.00 0.00 0.00 0.00 0.00 0.00
0.00 0.00 0.00 0.00 0.00 0.00 0.00 0.00 0.01 0.04 0.08 0.18 0.37 0.51 0.46 0.28 0.13 0.05 0.02 0.01 0.00 0.00 0.00 0.00 0.00 0.00 0.00 0.00 0.00 0.00 0.00 0.00 0.00 0.00 0.00 0.00 0.00 0.01 0.00 0.00 0.00 0.00 0.00 0.00
0.01 0.00 0.00 0.00 0.00 0.01 0.00 0.00 0.08 0.27 0.32 0.30 0.26 0.28 0.24 0.08 0.02 0.01 0.01 0.01 0.00 0.00 0.00 0.00 0.00 0.00 0.00 0.00 0.00 0.00 0.00 0.00 0.00 0.00 0.00 0.00 0.00 0.00 0.00 0.00 0.00 0.00 0.00 0.00
0.02 0.02 0.00 0.00 0.00 0.01 0.00 0.00 0.02 0.06 0.08 0.12 0.13 0.19 0.13 0.01 0.00 0.00 0.00 0.00 0.00 0.00 0.00 0.00 0.00 0.00 0.00 0.00 0.00 0.00 0.00 0.00 0.00 0.00 0.00 0.00 0.00 0.00 0.00 0.00 0.00 0.00 0.00 0.00
0.00 0.00 0.00 0.00 0.00 0.00 0.00 0.00 0.00 0.00 0.00 0.02 0.06 0.10 0.06 0.01 0.00 0.00 0.00 0.00 0.00 0.00 0.00 0.00 0.00 0.00 0.00 0.00 0.00 0.00 0.00 0.00 0.00 0.00 0.00 0.00 0.00 0.00 0.00 0.00 0.00 0.00 0.00 0.00
0.00 0.00 0.00 0.00 0.00 0.00 0.00 0.00 0.00 0.00 0.00 0.00 0.02 0.08 0.08 0.01 0.00 0.00 0.00 0.00 0.00 0.00 0.00 0.00 0.00 0.00 0.00 0.00 0.00 0.00 0.00 0.00 0.00 0.00 0.00 0.00 0.00 0.00 0.00 0.00 0.00 0.00 0.00 0.00
0.00 0.00 0.00 0.00 0.00 0.00 0.00 0.00 0.00 0.00 0.00 0.00 0.00 0.02 0.01 0.00 0.00 0.00 0.00 0.00 0.00 0.00 0.00 0.00 0.00 0.00 0.00 0.00 0.00 0.00 0.00 0.00 0.00 0.00 0.00 0.00 0.00 0.00 0.00 0.00 0.00 0.00 0.00 0.01
0.00 0.00 0.00 0.01 0.00 0.00 0.00 0.00 0.00 0.00 0.00 0.00 0.00 0.00 0.00 0.00 0.00 0.00 0.00 0.00 0.00 0.00 0.00 0.00 0.00 0.00 0.00 0.00 0.00 0.00 0.00 0.00 0.00 0.00 0.00 0.00 0.00 0.00 0.00 0.00 0.00 0.00 0.00 0.01
0.00 0.00 0.01 0.04 0.02 0.00 0.00 0.00 0.00 0.00 0.00 0.00 0.00 0.00 0.00 0.00 0.00 0.00 0.00 0.00 0.00 0.00 0.00 0.00 0.00 0.00 0.00 0.00 0.00 0.00 0.00 0.00 0.00 0.00 0.00 0.00 0.00 0.00 0.00 0.00 0.00 0.00 0.01 0.01
0.00 0.00 0.00 0.01 0.00 0.00 0.00 0.00 0.00 0.00 0.00 0.00 0.00 0.00 0.00 0.00 0.00 0.00 0.00 0.00 0.00 0.00 0.00 0.00 0.00 0.00 0.00 0.00 0.00 0.00 0.00 0.00 0.00 0.00 0.00 0.00 0.00 0.00 0.00 0.00 0.00 0.01 0.01 0.01
0.00 0.00 0.00 0.00 0.00 0.00 0.00 0.00 0.00 0.00 0.00 0.00 0.00 0.00 0.00 0.00 0.00 0.00 0.00 0.00 0.00 0.00 0.00 0.00 0.00 0.00 0.00 0.00 0.00 0.00 0.00 0.00 0.00 0.00 0.00 0.00 0.01 0.01 0.01 0.01 0.01 0.01 0.01 0.02
0.00 0.00 0.00 0.00 0.00 0.00 0.00 0.00 0.00 0.00 0.00 0.00 0.00 0.00 0.00 0.00 0.00 0.00 0.00 0.00 0.00 0.00 0.00 0.00 0.00 0.00 0.00 0.00 0.00 0.00 0.00 0.00 0.00 0.01 0.01 0.01 0.01 0.01 0.01 0.01 0.02 0.02 0.03 0.04
0.00 0.00 0.00 0.00 0.00 0.00 0.00 0.00 0.00 0.00 0.00 0.00 0.00 0.00 0.00 0.00 0.00 0.00 0.00 0.00 0.00 0.00 0.00 0.00 0.00 0.00 0.00 0.00 0.00 0.00 0.01 0.01 0.01 0.01 0.01 0.01 0.01 0.02 0.02 0.02 0.02 0.03 0.05 0.06
0.00 0.00 0.00 0.00 0.00 0.00 0.00 0.00 0.00 0.00 0.00 0.00 0.00 0.00 0.00 0.00 0.00 0.00 0.00 0.00 0.00 0.00 0.00 0.00 0.00 0.00 0.00 0.00 0.00 0.01 0.01 0.01 0.01 0.01 0.01 0.01 0.02 0.02 0.02 0.03 0.04 0.06 0.07 0.07
0.00 0.00 0.00 0.00 0.00 0.00 0.00 0.00 0.00 0.00 0.00 0.00 0.00 0.00 0.00 0.00 0.00 0.00 0.00 0.00 0.00 0.00 0.00 0.00 0.00 0.00 0.00 0.00 0.01 0.01 0.01 0.01 0.01 0.01 0.01 0.01 0.02 0.02 0.03 0.03 0.05 0.07 0.08 0.08
0.00 0.00 0.00 0.00 0.00 0.00 0.00 0.00 0.00 0.00 0.00 0.00 0.00 0.00 0.00 0.00 0.00 0.00 0.00 0.00 0.00 0.00 0.00 0.00 0.00 0.00 0.00 0.01 0.02 0.02 0.01 0.01 0.01 0.01 0.01 0.01 0.02 0.03 0.04 0.05 0.06 0.08 0.09 0.08
0.00 0.00 0.00 0.00 0.00 0.00 0.00 0.00 0.00 0.00 0.00 0.00 0.00 0.00 0.00 0.00 0.00 0.00 0.00 0.00 0.00 0.00 0.00 0.00 0.00 0.00 0.01 0.02 0.02 0.02 0.01 0.01 0.01 0.01 0.01 0.01 0.03 0.04 0.04 0.06 0.07 0.08 0.09 0.09
0.00 0.00 0.00 0.00 0.00 0.00 0.00 0.00 0.00 0.00 0.00 0.00 0.00 0.00 0.00 0.00 0.00 0.00 0.00 0.00 0.00 0.00 0.00 0.00 0.00 0.00 0.01 0.02 0.02 0.02 0.01 0.01 0.01 0.01 0.01 0.02 0.03 0.03 0.03 0.06 0.07 0.09 0.10 0.09
0.00 0.00 0.00 0.00 0.00 0.00 0.00 0.00 0.00 0.00 0.00 0.00 0.00 0.00 0.00 0.00 0.00 0.00 0.00 0.00 0.00 0.00 0.00 0.00 0.00 0.00 0.01 0.02 0.02 0.01 0.01 0.01 0.01 0.01 0.01 0.02 0.02 0.03 0.06 0.09 0.09 0.10 0.11 0.11
0.00 0.00 0.00 0.00 0.00 0.00 0.00 0.00 0.00 0.00 0.00 0.00 0.00 0.00 0.00 0.00 0.00 0.00 0.00 0.00 0.00 0.00 0.00 0.00 0.00 0.01 0.01 0.01 0.01 0.01 0.01 0.01 0.01 0.01 0.01 0.02 0.02 0.03 0.06 0.09 0.09 0.10 0.12 0.09
0.00 0.00 0.00 0.00 0.00 0.00 0.00 0.00 0.00 0.00 0.00 0.00 0.00 0.00 0.00 0.00 0.00 0.00 0.00 0.00 0.00 0.00 0.00 0.00 0.00 0.01 0.01 0.01 0.01 0.01 0.01 0.01 0.01 0.01 0.01 0.01 0.02 0.04 0.07 0.09 0.10 0.07 0.07 0.03
0.00 0.00 0.00 0.00 0.00 0.00 0.00 0.00 0.00 0.00 0.00 0.00 0.00 0.00 0.00 0.00 0.00 0.00 0.00 0.00 0.00 0.00 0.00 0.00 0.00 0.01 0.00 0.00 0.01 0.01 0.01 0.01 0.01 0.01 0.01 0.01 0.02 0.05 0.08 0.09 0.10 0.07 0.02 0.00
MSLP
1007.37 1007.89 1008.28 1008.56 1008.81 1009.08 1009.42 1009.87 1010.39 1010.94 1011.45 1011.86 1012.11 1012.19 1012.13 1011.96 1011.78 1011.65 1011.63 1011.73 1011.95 1012.23 1012.53 1012.78 1012.93 1012.96 1012.89 1012.74 1012.57 1012.43 1012.34 1012.32 1012.34 1012.38 1012.37 1012.27 1012.05 1011.70 1011.23 1010.70 1010.15 1009.66 1009.26 1008.98
1007.87 1008.24 1008.48 1008.65 1008.85 1009.14 1009.58 1010.18 1010.88 1011.62 1012.28 1012.77 1013.03 1013.04 1012.83 1012.46 1012.06 1011.72 1011.51 1011.48 1011.62 1011.89 1012.21 1012.51 1012.71 1012.79 1012.76 1012.64 1012.49 1012.37 1012.31 1012.33 1012.40 1012.48 1012.51 1012.43 1012.20 1011.80 1011.26 1010.63 1010.00 1009.43 1008.99 1008.72
1008.23 1008.43 1008.50 1008.56 1008.69 1009.01 1009.56 1010.32 1011.24 1012.19 1013.03 1013.64 1013.94 1013.91 1013.58 1013.03 1012.41 1011.85 1011.45 1011.26 1011.29 1011.51 1011.82 1012.15 1012.40 1012.54 1012.56 1012.49 1012.38 1012.30 1012.27 1012.33 1012.44 1012.56 1012.62 1012.55 1012.32 1011.89 1011.31 1010.64 1009.95 1009.33 1008.86 1008.58
1008.45 1008.45 1008.36 1008.30 1008.39 1008.74 1009.39 1010.33 1011.45 1012.61 1013.65 1014.40 1014.77 1014.73 1014.31 1013.61 1012.81 1012.04 1011.44 1011.09 1011.00 1011.15 1011.44 1011.78 1012.07 1012.27 1012.35 1012.33 1012.27 1012.22 1012.22 1012.31 1012.45 1012.59 1012.67 1012.63 1012.41 1012.00 1011.41 1010.73 1010.02 1009.38 1008.89 1008.59
1008.53 1008.35 1008.11 1007.94 1008.00 1008.38 1009.13 1010.22 1011.53 1012.89 1014.09 1014.98 1015.43 1015.39 1014.92 1014.12 1013.16 1012.23 1011.46 1010.97 1010.77 1010.84 1011.11 1011.45 1011.78 1012.03 1012.16 1012.19 1012.16 1012.13 1012.15 1012.24 1012.39 1012.55 1012.66 1012.65 1012.47 1012.09 1011.55 1010.89 1010.20 1009.56 1009.06 1008.74
1008.54 1008.21 1007.84 1007.60 1007.63 1008.03 1008.86 1010.06 1011.50 1012.99 1014.32 1015.31 1015.82 1015.81 1015.31 1014.45 1013.39 1012.35 1011.47 1010.87 1010.59 1010.61 1010.85 1011.20 1011.56 1011.84 1012.01 1012.07 1012.06 1012.03 1012.05 1012.13 1012.26 1012.43 1012.55 1012.58 1012.45 1012.15 1011.67 1011.08 1010.43 1009.82 1009.32 1008.97
1008.56 1008.11 1007.66 1007.36 1007.37 1007.78 1008.63 1009.88 1011.37 1012.92 1014.31 1015.35 1015.89 1015.90 1015.40 1014.51 1013.42 1012.33 1011.40 1010.75 1010.43 1010.43 1010.66 1011.02 1011.40 1011.71 1011.90 1011.97 1011.96 1011.92 1011.91 1011.95 1012.06 1012.21 1012.35 1012.41 1012.35 1012.12 1011.74 1011.23 1010.66 1010.10 1009.61 1009.24
1008.63 1008.13 1007.64 1007.31 1007.30 1007.68 1008.51 1009.72 1011.18 1012.69 1014.05 1015.07 1015.61 1015.62 1015.14 1014.27 1013.21 1012.14 1011.23 1010.60 1010.30 1010.30 1010.55 1010.92 1011.31 1011.63 1011.83 1011.90 1011.88 1011.80 1011.74 1011.74 1011.81 1011.93 1012.06 1012.15 1012.14 1012.00 1011.71 1011.30 1010.81 1010.31 1009.84 1009.45
1008.79 1008.30 1007.82 1007.49 1007.45 1007.78 1008.52 1009.62 1010.95 1012.34 1013.58 1014.51 1015.00 1015.00 1014.55 1013.76 1012.78 1011.81 1010.98 1010.43 1010.18 1010.23 1010.50 1010.90 1011.30 1011.62 1011.82 1011.87 1011.81 1011.70 1011.58 1011.52 1011.54 1011.62 1011.73 1011.82 1011.85 1011.77 1011.56 1011.24 1010.84 1010.39 1009.96 1009.57
1009.04 1008.61 1008.18 1007.88 1007.81 1008.07 1008.68 1009.61 1010.73 1011.91 1012.97 1013.75 1014.16 1014.14 1013.74 1013.04 1012.20 1011.37 1010.69 1010.26 1010.11 1010.23 1010.54 1010.95 1011.36 1011.67 1011.84 1011.87 1011.78 1011.62 1011.45 1011.33 1011.29 1011.31 1011.39 1011.47 1011.50 1011.46 1011.30 1011.05 1010.71 1010.32 1009.92 1009.54
1009.32 1009.01 1008.68 1008.43 1008.36 1008.53 1008.98 1009.69 1010.56 1011.48 1012.30 1012.91 1013.21 1013.18 1012.83 1012.26 1011.59 1010.94 1010.44 1010.16 1010.13 1010.31 1010.67 1011.08 1011.47 1011.76 1011.91 1011.90 1011.78 1011.58 1011.37 1011.20 1011.10 1011.06 1011.09 1011.13 1011.14 1011.09 1010.96 1010.74 1010.44 1010.09 1009.72 1009.37
1009.60 1009.44 1009.24 1009.07 1009.00 1009.09 1009.39 1009.86 1010.47 1011.11 1011.69 1012.10 1012.30 1012.25 1011.97 1011.54 1011.05 1010.61 1010.30 1010.17 1010.25 1010.50 1010.86 1011.27 1011.62 1011.87 1011.97 1011.93 1011.78 1011.56 1011.32 1011.11 1010.96 1010.88 1010.84 1010.83 1010.80 1010.72 1010.57 1010.35 1010.06 1009.74 1009.40 1009.07
1009.82 1009.84 1009.78 1009.70 1009.65 1009.69 1009.84 1010.10 1010.46 1010.84 1011.18 1011.43 1011.53 1011.47 1011.27 1010.99 1010.68 1010.43 1010.29 1010.31 1010.47 1010.75 1011.11 1011.46 1011.75 1011.94 1011.99 1011.92 1011.75 1011.51 1011.27 1011.04 1010.87 1010.74 1010.66 1010.58 1010.49 1010.36 1010.16 1009.92 1009.62 1009.30 1008.98 1008.68
1009.96 1010.14 1010.23 1010.25 1010.24 1010.23 1010.27 1010.37 1010.51 1010.67 1010.82 1010.92 1010.95 1010.90 1010.78 1010.63 1010.50 1010.42 1010.43 1010.54 1010.75 1011.03 1011.34 1011.61 1011.82 1011.92 1011.92 1011.81 1011.62 1011.39 1011.15 1010.94 1010.76 1010.62 1010.49 1010.37 1010.21 1010.01 1009.76 1009.47 1009.15 1008.81 1008.50 1008.21
1010.01 1010.33 1010.54 1010.66 1010.69 1010.68 1010.64 1010.61 1010.59 1010.58 1010.58 1010.58 1010.56 1010.53 1010.49 1010.46 1010.47 1010.52 1010.64 1010.81 1011.03 1011.27 1011.49 1011.66 1011.76 1011.77 1011.69 1011.54 1011.35 1011.14 1010.93 1010.75 1010.60 1010.45 1010.31 1010.14 1009.94 1009.68 1009.36 1009.02 1008.65 1008.29 1007.97 1007.69
1010.01 1010.41 1010.72 1010.90 1010.98 1010.96 1010.88 1010.76 1010.63 1010.51 1010.41 1010.34 1010.30 1010.29 1010.33 1010.40 1010.52 1010.67 1010.85 1011.04 1011.23 1011.40 1011.51 1011.56 1011.53 1011.44 1011.29 1011.11 1010.92 1010.74 1010.58 1010.45 1010.33 1010.21 1010.07 1009.89 1009.64 1009.32 1008.96 1008.55 1008.14 1007.74 1007.39 1007.10
1009.98 1010.42 1010.76 1010.99 1011.08 1011.06 1010.95 1010.78 1010.58 1010.39 1010.23 1010.12 1010.08 1010.11 1010.20 1010.35 1010.54 1010.76 1010.97 1011.15 1011.29 1011.37 1011.37 1011.29 1011.15 1010.96 1010.75 1010.54 1010.35 1010.21 1010.10 1010.03 1009.97 1009.89 1009.76 1009.57 1009.29 1008.94 1008.52 1008.06 1007.60 1007.16 1006.77 1006.44
1009.96 1010.38 1010.70 1010.92 1011.00 1010.97 1010.83 1010.63 1010.39 1010.16 1009.97 1009.85 1009.82 1009.88 1010.02 1010.23 1010.47 1010.71 1010.93 1011.10 1011.18 1011.17 1011.07 1010.88 1010.64 1010.38 1010.12 1009.89 1009.72 1009.61 1009.56 1009.54 1009.53 1009.49 1009.39 1009.19 1008.90 1008.52 1008.05 1007.54 1007.03 1006.53 1006.10 1005.73
1009.97 1010.30 1010.55 1010.71 1010.76 1010.69 1010.53 1010.30 1010.04 1009.79 1009.60 1009.48 1009.47 1009.55 1009.73 1009.97 1010.25 1010.51 1010.73 1010.87 1010.91 1010.84 1010.66 1010.41 1010.10 1009.79 1009.50 1009.27 1009.11 1009.04 1009.03 1009.06 1009.09 1009.07 1008.98 1008.79 1008.48 1008.06 1007.55 1007.00 1006.43 1005.88 1005.39 1004.98
1009.97 1010.17 1010.32 1010.39 1010.36 1010.24 1010.05 1009.80 1009.53 1009.28 1009.09 1009.00 1009.00 1009.11 1009.32 1009.59 1009.88 1010.16 1010.39 1010.51 1010.53 1010.43 1010.22 1009.93 1009.60 1009.27 1008.99 1008.77 1008.64 1008.59 1008.61 1008.66 1008.70 1008.70 1008.60 1008.39 1008.05 1007.59 1007.04 1006.44 1005.82 1005.23 1004.69 1004.22
1009.92 1009.97 1009.99 1009.94 1009.83 1009.65 1009.41 1009.15 1008.88 1008.65 1008.48 1008.41 1008.44 1008.58 1008.81 1009.11 1009.42 1009.72 1009.95 1010.09 1010.11 1010.01 1009.81 1009.53 1009.22 1008.91 1008.65 1008.45 1008.34 1008.31 1008.34 1008.40 1008.43 1008.40 1008.27 1008.02 1007.64 1007.13 1006.54 1005.89 1005.23 1004.59 1004.01 1003.51
1009.74 1009.64 1009.51 1009.35 1009.15 1008.91 1008.65 1008.38 1008.13 1007.92 1007.79 1007.76 1007.83 1008.00 1008.26 1008.58 1008.92 1009.23 1009.49 1009.65 1009.70 1009.64 1009.48 1009.25 1008.98 1008.72 1008.50 1008.34 1008.25 1008.22 1008.24 1008.27 1008.26 1008.18 1008.00 1007.69 1007.25 1006.70 1006.06 1005.37 1004.67 1004.01 1003.41 1002.90
1009.35 1009.12 1008.86 1008.60 1008.32 1008.04 1007.76 1007.51 1007.29 1007.13 1007.06 1007.08 1007.19 1007.41 1007.70 1008.05 1008.41 1008.76 1009.04 1009.24 1009.34 1009.33 1009.24 1009.07 1008.87 1008.67 1008.50 1008.38 1008.30 1008.27 1008.27 1008.25 1008.18 1008.03 1007.77 1007.39 1006.88 1006.27 1005.59 1004.87 1004.15 1003.48 1002.88 1002.38
1008.71 1008.36 1008.01 1007.67 1007.34 1007.04 1006.77 1006.55 1006.39 1006.30 1006.29 1006.38 1006.56 1006.82 1007.16 1007.54 1007.93 1008.30 1008.62 1008.86 1009.01 1009.07 1009.05 1008.96 1008.83 1008.70 1008.58 1008.49 1008.42 1008.38 1008.33 1008.25 1008.11 1007.87 1007.53 1007.07 1006.49 1005.83 1005.11 1004.37 1003.66 1003.01 1002.44 1001.98
1007.81 1007.38 1006.96 1006.57 1006.22 1005.93 1005.70 1005.53 1005.44 1005.43 1005.51 1005.67 1005.92 1006.24 1006.63 1007.05 1007.47 1007.87 1008.22 1008.51 1008.71 1008.82 1008.86 1008.84 1008.79 1008.71 1008.63 1008.57 1008.50 1008.43 1008.34 1008.19 1007.97 1007.65 1007.22 1006.68 1006.05 1005.35 1004.61 1003.87 1003.18 1002.56 1002.04 1001.64
1006.70 1006.22 1005.77 1005.36 1005.02 1004.76 1004.57 1004.47 1004.46 1004.54 1004.70 1004.95 1005.27 1005.66 1006.09 1006.55 1007.01 1007.44 1007.82 1008.14 1008.38 1008.54 1008.64 1008.67 1008.67 1008.64 1008.59 1008.53 1008.46 1008.36 1008.22 1008.00 1007.71 1007.31 1006.80 1006.20 1005.52 1004.79 1004.05 1003.32 1002.67 1002.10 1001.65 1001.32
Thickness
5807 5788 5769 5770 5786 5788 5787 5773 5755 5759 5785 5787 5780 5772 5771 5772 5766 5757 5752 5749 5747 5746 5748 5749 5748 5747 5744 5740 5737 5734 5730 5728 5724 5721 5718 5718 5719 5720 5720 5721 5721 5719 5717 5716
5787 5766 5769 5787 5801 5805 5802 5790 5775 5775 5787 5783 5776 5772 5772 5770 5764 5757 5752 5748 5745 5743 5743 5743 5743 5742 5738 5734 5730 5728 5723 5719 5716 5712 5710 5712 5712 5712 5713 5714 5712 5711 5710 5709
5772 5777 5795 5794 5800 5801 5798 5784 5780 5775 5778 5780 5770 5757 5757 5761 5760 5757 5754 5752 5748 5743 5739 5737 5736 5734 5732 5727 5723 5720 5715 5711 5706 5703 5702 5701 5700 5701 5701 5701 5701 5702 5701 5700
5790 5800 5801 5800 5799 5797 5776 5787 5788 5779 5765 5753 5742 5715 5727 5737 5740 5746 5747 5745 5743 5741 5738 5734 5731 5728 5724 5720 5717 5712 5707 5703 5698 5693 5689 5685 5683 5684 5685 5687 5689 5690 5690 5691
5783 5803 5802 5796 5800 5801 5789 5798 5784 5765 5748 5725 5700 5681 5694 5717 5721 5733 5740 5741 5741 5739 5735 5731 5727 5724 5720 5715 5710 5705 5701 5696 5691 5685 5680 5676 5673 5672 5673 5674 5675 5678 5680 5682
5787 5813 5815 5810 5815 5813 5809 5797 5775 5751 5729 5698 5696 5682 5689 5711 5726 5735 5738 5739 5737 5736 5733 5729 5726 5722 5715 5710 5704 5699 5693 5688 5683 5678 5673 5668 5664 5662 5661 5662 5664 5668 5671 5673
5774 5796 5814 5821 5804 5799 5797 5775 5742 5710 5692 5693 5711 5695 5706 5737 5746 5743 5738 5737 5737 5735 5731 5726 5721 5715 5709 5703 5698 5692 5685 5679 5675 5670 5665 5661 5657 5655 5654 5655 5657 5656 5658 5660
5762 5760 5796 5809 5799 5786 5789 5782 5750 5729 5727 5723 5715 5703 5724 5750 5752 5750 5747 5743 5738 5734 5730 5723 5717 5710 5703 5697 5691 5684 5678 5672 5668 5663 5659 5655 5652 5650 5649 5647 5646 5646 5647 5650
5776 5776 5806 5809 5809 5798 5785 5782 5789 5770 5764 5748 5729 5727 5732 5750 5748 5747 5745 5741 5737 5732 5726 5719 5712 5705 5698 5690 5684 5678 5672 5667 5662 5657 5653 5649 5647 5642 5640 5638 5638 5640 5640 5641
5794 5778 5797 5805 5809 5803 5794 5788 5776 5759 5743 5737 5744 5727 5722 5734 5740 5742 5740 5737 5733 5727 5720 5713 5705 5699 5692 5686 5680 5674 5668 5662 5656 5652 5647 5643 5638 5635 5633 5631 5630 5629 5630 5630
5798 5776 5782 5791 5781 5776 5780 5776 5768 5763 5756 5734 5731 5725 5746 5741 5741 5738 5737 5734 5727 5719 5712 5705 5699 5692 5686 5680 5673 5667 5661 5655 5650 5644 5639 5634 5630 5627 5625 5623 5622 5621 5620 5619
5795 5782 5766 5768 5782 5790 5785 5773 5765 5743 5738 5747 5743 5728 5756 5751 5748 5741 5735 5729 5722 5714 5706 5700 5693 5685 5678 5671 5665 5659 5653 5647 5642 5637 5631 5626 5623 5619 5616 5615 5612 5611 5609 5607
5784 5771 5752 5742 5749 5771 5778 5778 5772 5761 5750 5743 5736 5732 5755 5756 5747 5740 5731 5723 5716 5708 5700 5693 5686 5677 5671 5664 5657 5651 5645 5640 5634 5629 5623 5618 5614 5611 5608 5605 5603 5601 5598 5596
5782 5771 5757 5745 5755 5770 5771 5775 5774 5758 5743 5734 5737 5737 5747 5744 5736 5731 5725 5718 5711 5702 5693 5685 5678 5671 5665 5658 5651 5644 5639 5633 5628 5621 5615 5610 5606 5603 5600 5597 5594 5591 5587 5584
5782 5766 5769 5773 5781 5779 5773 5770 5767 5756 5748 5736 5736 5736 5739 5737 5732 5728 5722 5714 5705 5696 5688 5679 5672 5666 5659 5652 5645 5639 5633 5627 5621 5614 5608 5603 5600 5596 5592 5588 5584 5581 5576 5572
5780 5760 5761 5762 5772 5774 5770 5771 5766 5758 5752 5745 5740 5736 5744 5741 5735 5725 5717 5708 5699 5691 5683 5675 5668 5660 5653 5646 5640 5634 5628 5622 5615 5607 5602 5597 5592 5588 5584 5579 5575 5571 5566 5560
5774 5762 5750 5746 5764 5765 5754 5767 5764 5757 5756 5747 5732 5735 5739 5731 5724 5719 5714 5705 5695 5685 5678 5670 5662 5655 5649 5643 5636 5629 5623 5616 5608 5601 5596 5590 5585 5580 5576 5571 5567 5561 5555 5549
5768 5757 5749 5746 5747 5727 5759 5781 5771 5757 5752 5751 5746 5741 5734 5728 5725 5722 5714 5700 5689 5681 5673 5665 5658 5652 5647 5641 5633 5625 5618 5610 5603 5595 5589 5583 5578 5573 5568 5563 5558 5552 5546 5540
5781 5760 5747 5739 5734 5744 5760 5769 5764 5749 5741 5753 5743 5736 5733 5732 5721 5710 5704 5696 5687 5678 5669 5663 5656 5651 5644 5637 5630 5621 5613 5606 5598 5591 5583 5577 5571 5566 5562 5557 5551 5546 5540 5534
5781 5768 5748 5740 5726 5723 5754 5773 5772 5752 5732 5745 5740 5731 5727 5723 5706 5704 5702 5695 5686 5677 5669 5662 5655 5649 5641 5634 5626 5616 5608 5600 5592 5585 5577 5571 5565 5561 5557 5552 5547 5541 5535 5530
5759 5753 5744 5738 5733 5747 5767 5769 5764 5730 5723 5740 5738 5731 5725 5716 5707 5705 5703 5694 5684 5675 5667 5660 5652 5644 5637 5630 5622 5611 5603 5595 5588 5580 5573 5567 5561 5557 5554 5550 5545 5539 5533 5528
5760 5753 5749 5746 5734 5737 5763 5760 5746 5740 5748 5744 5738 5733 5726 5719 5713 5707 5699 5689 5681 5672 5664 5657 5648 5641 5634 5627 5617 5608 5599 5591 5583 5576 5569 5564 5559 5555 5553 5547 5542 5537 5532 5526
5770 5768 5760 5754 5749 5759 5767 5762 5763 5760 5749 5744 5739 5735 5727 5718 5710 5703 5695 5686 5677 5669 5661 5653 5646 5638 5631 5623 5613 5603 5595 5587 5579 5571 5565 5561 5557 5554 5550 5545 5541 5536 5532 5526
5774 5778 5763 5755 5759 5764 5767 5768 5767 5762 5753 5749 5743 5735 5727 5716 5708 5699 5691 5682 5673 5666 5657 5650 5642 5634 5627 5619 5610 5600 5591 5583 5574 5568 5563 5559 5556 5553 5549 5545 5540 5535 5531 5526
5767 5766 5758 5753 5760 5763 5764 5765 5764 5761 5757 5751 5744 5736 5727 5716 5705 5697 5687 5678 5669 5661 5654 5646 5638 5630 5623 5615 5606 5596 5587 5578 5571 5565 5560 5557 5554 5551 5548 5544 5540 5535 5532 5525
5772 5767 5757 5752 5763 5757 5756 5763 5765 5759 5753 5748 5741 5733 5726 5716 5704 5694 5683 5675 5666 5658 5650 5642 5635 5627 5620 5612 5602 5593 5584 5575 5568 5563 5559 5556 5553 5551 5547 5544 5541 5537 5531 5523